Simultaneous Nadir Overpasses (SNOs) Predictions

Prediction of SNOs between METOP-A and NOAA-19 Satellite Orbit:

Table of predicted SNOs for the next 14.0 days since TLE Epoch: 8/16/2014
Index Date (METOP-A) Time (METOP-A) Lat,Lon (METOP-A) SZA (METOP-A ) Date (NOAA-19) Time (NOAA-19) Lat,Lon (NOAA-19) SZA (NOAA-19 ) Distance(km) Time Diff (sec)
1 08/19/2014 05:56:41 -74.83, -92.40 118.00 08/19/2014 05:55:35 -74.83, -95.60 117.89 93.00 66
2 08/19/2014 06:47:33 74.23, 73.33 61.45 08/19/2014 06:46:21 74.22, 73.34 61.46 0.64 72
3 08/19/2014 07:38:16 -74.18,-119.46 118.58 08/19/2014 07:37:25 -74.19,-119.34 118.57 3.80 51
4 08/19/2014 08:28:55 74.21, 47.95 61.46 08/19/2014 08:28:24 74.20, 47.89 61.45 2.05 31
5 08/19/2014 09:19:38 -74.16,-144.85 118.58 08/19/2014 09:19:28 -74.17,-144.80 118.57 1.74 10
6 08/19/2014 10:10:18 74.14, 22.44 61.42 08/19/2014 10:10:27 74.17, 22.44 61.45 3.60 9
7 08/19/2014 11:01:00 -74.14,-170.23 118.57 08/19/2014 11:01:31 -74.14,-170.25 118.57 0.48 31
8 08/19/2014 11:51:40 74.12, -2.95 61.43 08/19/2014 11:52:29 74.10, -2.88 61.40 3.14 49
9 08/19/2014 12:42:22 -74.12, 164.38 118.57 08/19/2014 12:43:34 -74.12, 164.30 118.58 2.49 72
10 08/19/2014 13:33:15 73.46, -29.87 60.84 08/19/2014 13:34:20 73.49, -26.89 60.77 94.44 65
11 08/29/2014 13:26:01 74.41, -25.81 65.12 08/29/2014 13:24:48 74.43, -26.68 65.16 26.06 73
12 08/29/2014 14:16:47 -74.22, 141.02 115.06 08/29/2014 14:15:46 -74.21, 141.14 115.06 3.65 61
13 08/29/2014 15:07:27 74.20, -51.70 64.94 08/29/2014 15:06:47 74.21, -51.62 64.96 2.98 40
14 08/29/2014 15:58:09 -74.20, 115.63 115.05 08/29/2014 15:57:49 -74.19, 115.69 115.06 1.98 20
15 08/29/2014 16:48:49 74.18, -77.08 64.95 08/29/2014 16:48:50 74.19, -77.07 64.96 1.19 1
16 08/29/2014 17:39:31 -74.18, 90.25 115.04 08/29/2014 17:39:52 -74.16, 90.23 115.06 1.70 21
17 08/29/2014 18:30:11 74.16,-102.47 64.96 08/29/2014 18:30:53 74.16,-102.52 64.96 1.44 42
18 08/29/2014 19:20:53 -74.16, 64.86 115.03 08/29/2014 19:21:55 -74.14, 64.78 115.06 3.23 62
19 08/29/2014 20:11:40 73.79,-128.70 64.64 08/29/2014 20:12:50 73.85,-127.23 64.65 46.12 70




NCC Satellite Simultaneous Nadir Overpasses (SNOs) Prediction Service
